User: anonymous
Location: Unspecified
(0.0000°N, 0.0000°E)
Time: 07:48:35
(UTC+02:00)
Language:

Orbus 21S - Orbit

View from above orbital plane
View from above orbital plane
View from above satellite
View from above satellite

Ground track
Ground track

The orbit data is extracted from the following two-line orbital elements,

1 20669U 90056C   14261.06375368  .00001349  00000-0  18097-2 0  3735
2 20669 024.1276 144.4322 7120334 024.5640 299.1095 02.44482536202667
Epoch (UTC): 18 September 2014 01:31:48
Eccentricity: 0.7120334
inclination: 24.1276°
perigee height: 324 km
apogee height: 33470 km
right ascension of ascending node: 144.4322°
argument of perigee: 24.5640°
revolutions per day: 2.44482536
mean anomaly at epoch: 299.1095°
orbit number at epoch: 20266

The dashed part of the orbit path shows where the satellite is in the earth's shadow,  

DLR